Iowa Falls, IA

1:09 AM CST on December 07, 2019 (GMT -0600)
Iowa Falls Municipal

Weather History for KIFA - October, 2019

Change the Weather History Date:

Sunday, October 13, 2019

  Actual Average Record
Temperature  
Mean Temperature 41 °F -  
Max Temperature 47 °F 62 °F 90 °F (1975)
Min Temperature 35 °F 39 °F 26 °F (1979)
Degree Days  
Heating Degree Days 24    
Moisture  
Dew Point 28 °F    
Average Humidity 61    
Maximum Humidity 76    
Minimum Humidity 43    
Precipitation  
Precipitation 0.00 in - - ()
Sea Level Pressure  
Sea Level Pressure 29.88 in    
Wind  
Wind Speed 11 mph ()    
Max Wind Speed 24 mph    
Max Gust Speed 30 mph    
Visibility 9.9 miles    
Events      
Averages and records for this station are not official NWS values.
T = Trace of Precipitation, MM = Missing Value Source: Averaged Metar Reports

Daily Weather History Graph

Daily Weather History Graph

Search for Another Location

Airport or City:

Astronomy

Oct. 13, 2019 Rise Set
Actual Time 7:23 AM CDT 6:34 PM CDT
Civil Twilight 6:55 AM CDT 7:02 PM CDT
Nautical Twilight 6:22 AM CDT 7:35 PM CDT
Astronomical Twilight 5:49 AM CDT 8:07 PM CDT
Moon 6:58 PM CDT (10/13) 6:56 AM CDT (10/13)
Length of Visible Light 12h 07m
Length of Day
11h 11m
Full, 100% of the Moon is Illuminated
Oct 13
Full
Oct 13
Full
Oct 21
Last Quarter
Oct 27
New
Nov 4
First Quarter

Hourly Weather History & Observations

Time (CDT) Temp. Windchill Dew Point Humidity Pressure Visibility Wind Dir Wind Speed Gust Speed Precip Events Conditions
12:15 AM 36.7 °F 28.0 °F 29.1 °F 74% 29.81 in 10.0 mi West 13.8 mph 20.7 mph N/A   Overcast
12:55 AM 37.4 °F 28.9 °F 28.2 °F 69% 29.80 in 10.0 mi WSW 13.8 mph 18.4 mph N/A   Overcast
1:15 AM 37.4 °F 30.3 °F 28.0 °F 69% 29.81 in 10.0 mi WSW 10.4 mph 16.1 mph N/A   Overcast
1:35 AM 37.6 °F 31.6 °F 28.2 °F 69% 29.80 in 10.0 mi WSW 8.1 mph - N/A   Overcast
1:55 AM 37.4 °F 30.3 °F 28.0 °F 69% 29.80 in 10.0 mi WSW 10.4 mph - N/A   Overcast
2:15 AM 37.4 °F 29.8 °F 28.0 °F 69% 29.80 in 10.0 mi West 11.5 mph 16.1 mph N/A   Overcast
2:55 AM 36.9 °F 31.4 °F 28.2 °F 71% 29.81 in 10.0 mi West 6.9 mph - N/A   Overcast
3:15 AM 37.2 °F 30.0 °F 28.4 °F 70% 29.81 in 10.0 mi West 10.4 mph 16.1 mph N/A   Overcast
3:35 AM 37.6 °F 31.0 °F 28.4 °F 69% 29.81 in 10.0 mi West 9.2 mph - N/A   Overcast
3:55 AM 37.9 °F 32.1 °F 28.8 °F 70% 29.81 in 10.0 mi West 8.1 mph - N/A   Overcast
4:15 AM 38.3 °F 30.9 °F 28.8 °F 69% 29.81 in 10.0 mi West 11.5 mph 19.6 mph N/A   Overcast
4:35 AM 38.3 °F 30.5 °F 28.6 °F 68% 29.81 in 7.0 mi West 12.7 mph 16.1 mph N/A   Overcast
4:55 AM 38.3 °F 31.4 °F 28.6 °F 68% 29.81 in 10.0 mi West 10.4 mph 16.1 mph N/A   Overcast
5:15 AM 38.3 °F 31.4 °F 29.1 °F 70% 29.81 in 10.0 mi West 10.4 mph - N/A   Overcast
5:35 AM 38.3 °F 31.4 °F 29.1 °F 70% 29.82 in 10.0 mi West 10.4 mph - N/A   Overcast
5:55 AM 38.3 °F 31.9 °F 28.9 °F 69% 29.81 in 10.0 mi West 9.2 mph - N/A   Overcast
6:15 AM 38.3 °F 31.9 °F 29.3 °F 70% 29.82 in 10.0 mi West 9.2 mph - N/A   Overcast
6:35 AM 38.1 °F 32.3 °F 29.3 °F 71% 29.82 in 10.0 mi West 8.1 mph - N/A   Overcast
6:55 AM 37.9 °F 33.5 °F 29.8 °F 73% 29.82 in 10.0 mi West 5.8 mph - N/A   Overcast
7:15 AM 37.8 °F 33.3 °F 29.8 °F 73% 29.82 in 10.0 mi West 5.8 mph - N/A   Overcast
7:35 AM 37.8 °F 32.5 °F 30.0 °F 74% 29.82 in 10.0 mi West 6.9 mph - N/A   Overcast
7:55 AM 37.9 °F 31.5 °F 30.2 °F 74% 29.83 in 10.0 mi West 9.2 mph - N/A   Overcast
8:15 AM 38.3 °F 31.9 °F 30.2 °F 73% 29.84 in 10.0 mi West 9.2 mph - N/A   Overcast
8:35 AM 38.5 °F 30.7 °F 29.5 °F 70% 29.85 in 10.0 mi West 12.7 mph 17.3 mph N/A   Overcast
8:55 AM 38.7 °F 30.9 °F 28.4 °F 67% 29.85 in 10.0 mi West 12.7 mph - N/A   Overcast
9:15 AM 38.7 °F 30.9 °F 28.4 °F 67% 29.85 in 10.0 mi West 12.7 mph 18.4 mph N/A   Overcast
9:35 AM 38.7 °F 30.1 °F 27.5 °F 64% 29.84 in 10.0 mi WNW 15.0 mph 20.7 mph N/A   Overcast
9:55 AM 39.2 °F 30.5 °F 27.9 °F 64% 29.85 in 10.0 mi West 16.1 mph 20.7 mph N/A   Overcast
10:15 AM 40.1 °F 31.3 °F 27.9 °F 62% 29.85 in 10.0 mi West 17.3 mph 24.2 mph N/A   Overcast
10:35 AM 41.2 °F 32.4 °F 28.2 °F 60% 29.86 in 10.0 mi West 18.4 mph 23.0 mph N/A   Overcast
10:55 AM 42.1 °F 34.5 °F 28.2 °F 58% 29.86 in 7.0 mi West 15.0 mph 19.6 mph N/A   Overcast
11:15 AM 42.1 °F 33.9 °F 27.5 °F 56% 29.87 in 10.0 mi West 17.3 mph 24.2 mph N/A   Overcast
11:35 AM 43.5 °F 35.8 °F 27.9 °F 54% 29.87 in 10.0 mi West 17.3 mph 25.3 mph N/A   Overcast
11:55 AM 43.2 °F 35.0 °F 27.1 °F 53% 29.88 in 10.0 mi West 18.4 mph 24.2 mph N/A   Overcast
12:15 PM 43.3 °F 35.8 °F 26.8 °F 52% 29.89 in 10.0 mi West 16.1 mph 27.6 mph N/A   Overcast
12:35 PM 44.4 °F 36.6 °F 27.5 °F 52% 29.88 in 7.0 mi West 18.4 mph 25.3 mph N/A   Overcast
12:55 PM 44.4 °F 36.6 °F 26.2 °F 49% 29.87 in 10.0 mi West 18.4 mph 25.3 mph N/A   Overcast
1:15 PM 46.9 °F - 27.1 °F 46% 29.88 in 10.0 mi West 21.9 mph 29.9 mph N/A   Mostly Cloudy
1:35 PM 46.4 °F 38.7 °F 26.8 °F 46% 29.88 in 10.0 mi West 20.7 mph 25.3 mph N/A   Overcast
1:55 PM 46.8 °F - 26.4 °F 45% 29.87 in 10.0 mi West 19.6 mph 27.6 mph N/A   Mostly Cloudy
2:15 PM 46.8 °F - 25.5 °F 43% 29.88 in 10.0 mi West 19.6 mph 26.5 mph N/A   Overcast
2:35 PM 46.2 °F 38.5 °F 26.2 °F 46% 29.88 in 10.0 mi West 20.7 mph 28.8 mph N/A   Overcast
2:55 PM 46.8 °F - 27.0 °F 46% 29.87 in 10.0 mi West 18.4 mph 25.3 mph N/A   Overcast
3:15 PM 46.4 °F 38.1 °F 27.1 °F 47% 29.88 in 10.0 mi West 24.2 mph 28.8 mph N/A   Overcast
3:35 PM 46.4 °F 39.2 °F 27.9 °F 48% 29.88 in 10.0 mi West 18.4 mph 25.3 mph N/A   Overcast
3:55 PM 45.9 °F 38.0 °F 27.7 °F 49% 29.89 in 10.0 mi West 20.7 mph 26.5 mph N/A   Overcast
4:15 PM 45.5 °F 39.2 °F 28.0 °F 51% 29.89 in 10.0 mi WNW 13.8 mph 20.7 mph N/A   Overcast
4:35 PM 46.0 °F 39.3 °F 28.6 °F 51% 29.89 in 10.0 mi WNW 16.1 mph 19.6 mph N/A   Overcast
4:55 PM 46.6 °F - 28.6 °F 50% 29.90 in 10.0 mi West 16.1 mph - N/A   Overcast
5:15 PM 46.0 °F 39.3 °F 28.8 °F 51% 29.90 in 10.0 mi West 16.1 mph - N/A   Overcast
5:35 PM 45.9 °F 39.7 °F 29.1 °F 52% 29.92 in 10.0 mi WNW 13.8 mph - N/A   Overcast
5:55 PM 45.5 °F 39.6 °F 28.4 °F 51% 29.92 in 10.0 mi WNW 12.7 mph - N/A   Overcast
6:15 PM 45.0 °F 39.3 °F 28.4 °F 52% 29.93 in 10.0 mi West 11.5 mph - N/A   Overcast
6:35 PM 44.6 °F 39.7 °F 28.9 °F 54% 29.94 in 10.0 mi WNW 9.2 mph - N/A   Overcast
6:55 PM 44.2 °F 39.2 °F 29.5 °F 56% 29.94 in 10.0 mi West 9.2 mph - N/A   Overcast
7:15 PM 44.2 °F 40.3 °F 29.8 °F 57% 29.96 in 10.0 mi West 6.9 mph - N/A   Overcast
7:35 PM 44.1 °F 38.6 °F 28.9 °F 55% 29.96 in 10.0 mi West 10.4 mph - N/A   Overcast
7:55 PM 43.9 °F 38.8 °F 28.4 °F 55% 29.96 in 10.0 mi WNW 9.2 mph - N/A   Overcast
8:15 PM 43.3 °F 37.7 °F 28.6 °F 56% 29.97 in 10.0 mi WNW 10.4 mph - N/A   Overcast
8:35 PM 42.8 °F 39.3 °F 29.3 °F 59% 29.97 in 10.0 mi WNW 5.8 mph - N/A   Overcast
8:55 PM 42.8 °F 39.3 °F 28.4 °F 57% 29.97 in 10.0 mi NW 5.8 mph - N/A   Overcast
9:15 PM 42.1 °F 38.4 °F 28.6 °F 59% 29.98 in 10.0 mi WNW 5.8 mph - N/A   Overcast
9:35 PM 40.8 °F 37.8 °F 28.4 °F 61% 29.99 in 10.0 mi NNW 4.6 mph - N/A   Mostly Cloudy
9:55 PM 39.0 °F 35.7 °F 28.4 °F 66% 29.99 in 10.0 mi NW 4.6 mph - N/A   Scattered Clouds
10:15 PM 37.4 °F 34.9 °F 28.6 °F 70% 29.99 in 10.0 mi NW 3.5 mph - N/A   Scattered Clouds
10:35 PM 37.0 °F - 28.8 °F 72% 30.00 in 10.0 mi Calm Calm - N/A   Mostly Cloudy
10:55 PM 36.9 °F 33.1 °F 29.3 °F 74% 29.99 in 10.0 mi NW 4.6 mph - N/A   Mostly Cloudy
11:15 PM 37.4 °F 33.8 °F 29.1 °F 72% 30.00 in 10.0 mi NW 4.6 mph - N/A   Scattered Clouds
11:35 PM 36.0 °F - 28.4 °F 74% 29.99 in 10.0 mi Calm Calm - N/A   Clear
11:55 PM 35.6 °F - 28.8 °F 76% 30.00 in 10.0 mi Calm Calm - N/A   Clear